WB6TTB Weather Reports


Display with metric or nautical units.
time (UTC)temp
F
wind
direction
speed
MPH
gust
MPH
rain 1hr
in
rain 24hr
in
rain mn
in
humidity
%
barometer
mb
20260506110603 53 0 0.0 0.0 0.00 0.00 0.00 91 1018.3
20260506104203 53 0 0.0 0.0 0.00 0.00 0.00 91 1018.2
20260506101204 53 0 0.0 0.0 0.00 0.00 0.00 90 1018.1
20260506093004 53 0 0.0 0.0 0.00 0.00 0.00 90 1018.2
20260506084803 53 0 0.0 0.0 0.00 0.01 0.00 90 1018.0
20260506071204 53 0 0.0 0.0 0.00 0.09 0.00 90 1017.7
20260506061803 52 0 0.0 0.0 0.00 0.09 0.09 92 1017.3
20260506044204 53 0 0.0 0.0 0.00 0.16 0.09 93 1016.7
20260506040003 53 0 0.0 0.0 0.00 0.22 0.09 92 1016.2
20260506031204 54 0 0.0 0.0 0.00 0.23 0.09 92 1015.5
20260506025404 55 0 0.0 0.0 0.00 0.23 0.09 91 1015.3
20260506015403 57 0 0.0 0.0 0.00 0.23 0.09 89 1014.9
20260506011203 58 0 0.0 0.0 0.00 0.23 0.09 86 1014.9
20260505234203 57 0 0.0 0.0 0.00 0.23 0.09 87 1014.6
20260505201803 57 0 0.0 0.0 0.00 0.23 0.09 89 1015.1
20260505190004 58 0 0.0 0.0 0.00 0.23 0.09 88 1015.1
20260505180003 57 0 0.0 0.0 0.00 0.23 0.09 91 1015.0
20260505172404 56 0 0.0 0.0 0.00 0.23 0.09 95 1014.7
20260505124804 51 0 0.0 0.0 0.00 0.23 0.09 96 1013.4
20260505123603 51 0 0.0 0.0 0.00 0.23 0.09 96 1013.5